Flag for Kosovo Weather past 2 weeks in Uroševac, Kosovo

Now
57 °F

Light rain. Mostly cloudy.


Feels Like: 54 °F
Forecast: 42 / 61 °F
Wind: 16 mph from Northeast

Location: Skopje-Petrovec

Current Time: Sep 23, 2014 at 12:31:40 AM

Latest Report: Sep 23, 2014 at 12:00 AM


Visibility: N/A

Pressure: 29.86 "Hg

Humidity: 88%

Dew point: 54 °F

Location of UroševacLocation

Historic Weather in Uroševac — Graph

°F

Uroševac temperature yesterday

Maximum temperature yesterday: 82 °F (at 2:30 PM)
Minimum temperature yesterday: 59 °F (at 2:30 AM)
Average temperature yesterday: 69 °F

Past Weeks' High & Low Weather Summary

 TemperatureHumidityPressure
High84 °F (Sep 13, 2:00 PM)100% (Sep 8, 6:30 AM)30.27 "Hg (Sep 8, 6:30 AM)
Low50 °F (Sep 19, 6:30 AM)35% (Sep 10, 4:30 PM)29.71 "Hg (Sep 22, 5:00 PM)
Average67 °F77%30.01 "Hg
* Reported Sep 7 11:00 PM — Sep 22 11:30 PM, Uroševac, Weather by CustomWeather, © 2014

Note: Actual official high and low records may vary slightly from our data, if they occured in-between our weather recording intervals... More about our weather records

Advertising

Uroševac weather history for previous 24 hours

 ConditionsComfort  
Time TempWeatherWind HumidityBarometerVisibility
11:30 PM
Sep 22
59 °FLight rain. Mostly cloudy.10 mph82%29.86 "HgN/A
11:00 PM61 °FRain. Mostly cloudy.10 mph77%29.86 "HgN/A
10:30 PM68 °FLight rain. Passing clouds.25 mph64%29.80 "HgN/A
10:00 PM68 °FPassing clouds.20 mph69%29.77 "HgN/A
9:30 PM68 °FPassing clouds.14 mph69%29.77 "HgN/A
9:00 PM70 °FPassing clouds.15 mph69%29.74 "HgN/A
8:30 PM72 °FPassing clouds.13 mph65%29.74 "HgN/A
8:00 PM72 °FPassing clouds.2 mph73%29.71 "HgN/A
7:30 PM72 °FScattered clouds.2 mph73%29.71 "HgN/A
7:00 PM73 °FScattered clouds.2 mph74%29.71 "HgN/A
6:30 PM75 °FScattered clouds.2 mph65%29.71 "HgN/A
6:00 PM79 °FScattered clouds.2 mph54%29.71 "HgN/A
5:30 PM79 °FScattered clouds.2 mph48%29.71 "HgN/A
5:00 PM82 °FScattered clouds.3 mph40%29.71 "HgN/A
4:30 PM82 °FScattered clouds.3 mph37%29.74 "HgN/A
4:00 PM81 °FScattered clouds.5 mph42%29.74 "HgN/A
3:30 PM81 °FScattered clouds.3 mph54%29.74 "HgN/A
3:00 PM82 °FScattered clouds.3 mph55%29.77 "HgN/A
2:30 PM82 °FScattered clouds.2 mph51%29.77 "HgN/A
2:00 PM79 °FScattered clouds.2 mph58%29.77 "HgN/A
12:30 PM79 °FPassing clouds.2 mph54%29.80 "HgN/A
12:00 PM77 °FPassing clouds.1 mph57%29.83 "HgN/A
11:30 AM77 °FPassing clouds.2 mph54%29.83 "HgN/A
11:00 AM75 °FPassing clouds.1 mph65%29.83 "HgN/A
10:30 AM73 °FPassing clouds.No wind65%29.86 "HgN/A
10:00 AM70 °FPassing clouds.2 mph78%29.86 "HgN/A
9:30 AM68 °FPassing clouds.1 mph83%29.89 "HgN/A
9:00 AM68 °FPassing clouds.3 mph78%29.89 "HgN/A
8:30 AM66 °FScattered clouds.5 mph83%29.89 "HgN/A
8:00 AM64 °FScattered clouds.2 mph88%29.89 "HgN/A
7:30 AM63 °FScattered clouds.No wind94%29.89 "HgN/A
7:00 AM61 °FPassing clouds.No wind94%29.89 "HgN/A
6:30 AM61 °FPassing clouds.2 mph94%29.89 "HgN/A
6:00 AM61 °FPartly cloudy.3 mph94%29.89 "HgN/A
5:30 AM59 °FPassing clouds.2 mph100%29.89 "HgN/A
5:00 AM59 °FPassing clouds.No wind100%29.92 "HgN/A
4:30 AM59 °FPassing clouds.No wind100%29.92 "HgN/A
4:00 AM59 °FPassing clouds.No wind100%29.92 "HgN/A
2:30 AM59 °FPassing clouds.No wind100%29.92 "HgN/A
2:00 AM61 °FPassing clouds.No wind94%29.92 "HgN/A
1:30 AM61 °FPassing clouds.No wind94%29.92 "HgN/A
1:00 AM61 °FPassing clouds.No wind94%29.92 "HgN/A
12:30 AM63 °FPassing clouds.2 mph94%29.95 "HgN/A
12:00 AM64 °FPassing clouds.3 mph88%29.95 "HgN/A
Weather by CustomWeather, © 2014

See weather overviewHow to use our weather pages